Regional Weather Roundup
Issued by NWS Northern Indiana

Home | Current Version | Previous Version | Graphics & Text | Print | Product List | Glossary On
Versions: 1 2 3 4 5 6 7 8 9 10 11 12 13 14 15 16 17 18 19 20 21 22 23 24 25 26 27 28 29 30 31 32 33 34 35 36 37 38 39 40 41 42 43 44 45 46 47 48 49 50
000
ASUS43 KIWX 220800
RWRIWX

KIWX WEATHER ROUNDUP
NATIONAL WEATHER SERVICE NORTHERN INDIANA
300 AM EST WED NOV 22 2017

NOTE: "FAIR" INDICATES FEW OR NO CLOUDS BELOW 12,000 FEET WITH NO
SIGNIFICANT WEATHER AND/OR OBSTRUCTIONS TO VISIBILITY.

* THESE STATIONS ARE NOT UNDER NWS QUALITY CONTROL. THEY ALSO MAY NOT
  REPORT WEATHER SUCH AS PRECIPITATION OR FOG.

INZ001>027-220900-
NORTHERN INDIANA

CITY           SKY/WX    TMP DP  RH WIND       PRES   REMARKS
KNOX*          CLOUDY    32  25  74 NW9       30.19R WCI  24
SOUTH BEND     CLOUDY    32  24  72 N14       30.18R WCI  22
GOSHEN         CLOUDY    33  23  66 NW9       30.16R WCI  25
MONTICELLO*    CLOUDY    28  19  70 NW8       30.22R WCI  20
WARSAW*        CLOUDY    32  25  74 NW8       30.17R WCI  25
FORT WAYNE     CLOUDY    35  25  66 NW8       30.16R WCI  29
PERU/GRISSOM   CLOUDY    31  23  74 NW12      30.18R WCI  21

$$
INZ028>050-220900-
CENTRAL INDIANA

CITY           SKY/WX    TMP DP  RH WIND       PRES   REMARKS
LAFAYETTE      CLEAR     26  19  74 NW9       30.24R WCI  17
KOKOMO*        CLOUDY    31  24  75 NW12      30.20R WCI  22
MUNCIE*        CLOUDY    32  25  75 NW9       30.17R WCI  24
INDIANAPOLIS   PTCLDY    27  22  81 NW9       30.21R WCI  18

$$
MIZ043>046-050>051-056>058-064>065-071>073-077>080-220900-
SOUTHWEST LOWER MICHIGAN

CITY           SKY/WX    TMP DP  RH WIND       PRES   REMARKS
BATTLE CREEK   CLOUDY    31  20  63 N8        30.15R WCI  23
BENTON HARBOR  CLOUDY    34  19  54 VRB7      30.19R WCI  28
COLDWATER*     CLOUDY    32  20  62 NW8       30.14R WCI  24
HILLSDALE*     CLOUDY    32  21  64 NW8       30.11R WCI  25
HOLLAND        CLOUDY    31  19  61 N9G16     30.19R WCI  23
GRAND RAPIDS   CLOUDY    30  20  66 NW13      30.17R WCI  20
KALAMAZOO      CLOUDY    32  20  61 NW8       30.16R WCI  25
STURGIS*       CLOUDY    31  23  72 N6        30.14R WCI  25
THREE RIVERS*  CLOUDY    33  23  67 N3        30.16R

$$
OHZ001>008-015>018-024>025-220900-
NORTHWEST OHIO

CITY           SKY/WX    TMP DP  RH WIND       PRES   REMARKS
DEFIANCE       CLOUDY    33  21  61 NW14      30.15R WCI  23
FINDLAY        CLOUDY    35  24  64 NW14      30.11R WCI  26
TOLEDO EXPRESS CLOUDY    35  26  69 NW10      30.12R WCI  27
TOLEDO METCALF CLOUDY    35  25  66 NW10      30.13R WCI  27
LIMA           CLOUDY    33  28  81 NW10      30.11R WCI  25

$$
AND FOR LAKE MICHIGAN COASTAL AND OPEN LAKE BUOY OBSERVATIONS

STATION/POSITION TEMP    WIND        PRES    VSBY  WAVE
                 AIR SEA DIR/SP/G                  HT/PER
                 (F)     (DEG/KT/KT) (MB)    (MI)  (FT/S)
CALUMET HARBOR    26     280/  6/ 11 1023.1R
MICHIGAN CITY     32     310/ 16/ 20   N/A
BURNS HARBOR      32     320/ 10/ 20 1023.4R
SAINT JOSEPH      35     320/ 15/ 18 1022.0
SOUTH LAKE BUOY   31 47  340/ 16/ 19 1022.8          5/ 7

$$
&&




USA.gov is the U.S. government's official web portal to all federal, state and local government web resources and services.